GEESAT 4-09

导读

GEESAT 4-09是中国于2025年8月8日发射的卫星。作为GEESAT 4系列的重要组成部分,该卫星承载着中国航天领域相关任务目标,有望在通信服务、遥感监测等应用场景中发挥作用,进一步推动中国卫星网络布局完善,助力商业航天发展,为相关领域的科研与应用提供数据与技术支撑。

Basic Information
目录编号:
65127
目录名称:
GEESAT 4-09
国际标识:
2025-170J
轨道中心:
EARTH
卫星名称:
GEESAT 4-09
卫星全名:
GEESAT 4-09
卫星状态:
在轨 (已飞行354 天)
发射日期:
2025-08-08 UTC
国别 :
中国 (CN)
星等 :
--
Orbit Information
数据来源 国际轨道数据
星历时间: 2026-07-28T10:17:31+0800
12小时前
查看轨道信息
半长轴: 7002.704km
偏心率: 0.0022201
轨道倾角: 49.992°
近地点辐角 187.186°
升交点赤经 15.003°
平近点角 172.876°
近地点: 609.02km
远地点: 640.114km
周期: 97.198分钟
每日圈数: 14.815084
Detailed Information
使用方式:
暂无
2D Orbit Map
3D Orbit Map
Orbit Altitude Analysis Chart
Orbit Inclination Analysis Chart
Orbit Comprehensive Analysis Chart
View Comprehensive Chart